CZ-2D DEB, 38177

Orbit data source: Space-Track

CZ-2D DEB, 38177 is space debris in SSO originally from a launch on Sun, 20 Nov 2011 UTC launched from the Jiuquan Satellite Launch Center, China (JSC). Debris objects in space refer to the collection of defunct objects orbiting the Earth. Examples of debris include non-operational satellites, rocket bodies, and fragments generated from explosions, collisions, or faulty payload assembly.

Loading next visibility...
Identifier
38177, 2011-068E
Orbit
SSO
Country
Flag of CNCN / PRC
Related business
Manufacturer
Unknown
Mission
Spacecraft
Bus & Motor
Unknown
Mass
Unknown
Launch date (UTC)
2011-11-20 (14 years ago)
Launch vehicle
Unknown
Launch site
Jiuquan Satellite Launch Center, China (JSC)
Object type
Payload
Rocket body
Debris
Shape & HBR
Unknown shape, 0.1 m
Radar Cross Section
Small (<0.1 m²)

Expand to show TLE details & history
Last TLE update: 2 days ago

TLE from 2 days ago
0 CZ-2D DEB
1 38177U 11068E   26094.03505906  .00003860  00000-0  98429-3 0  9993
2 38177  98.5095 120.9312 0120892  89.8998 300.9168 14.46818488749914
Epoch: 2026-04-04T00:50Z
TLE epoch observation values (Epoch: 2026-04-04T00:50:29.102Z)
Latitude
29.31093°
Longitude
-88.84322°
Altitude
696.307 km
Speed
7.534 km/s
True Right ascension
07h 44m 33s
True Declination
29° 09' 47"
Sunlit
Object was in daylight at epoch
Visualization orbit readout
Latitude
Unknown
Longitude
Unknown
Altitude
Unknown
Speed
Unknown
Apparent Right ascension
Unknown
Apparent Declination
Unknown
Sunlit
N/A
Visualization observer readout
Local Sidereal Time
21:59:11
Azimuth
Unknown
Elevation
Unknown
Doppler factor
Unknown
Orbital elements
Apogee altitude
819.141 km
Perigee altitude
647.201 km
Semi-major axis
7,111.308 km
Eccentricity
0.01209
Inclination
98.5095°
RAAN
120.9312°
Arg. of periapsis
89.8998°
True anomaly
299.7191°
Mean anomaly
300.9168°
Eccentric anomaly
300.31888°
Mean motion
3.61925 °/min
Orbital period
99.47 mins
BSTAR
0.00098429
Loading maneuver chart data...
Computing Atmospheric mass density...
Loading historical data...
Loading historical data...
Loading historical data...
Loading historical data...
Loading historical data...
Loading historical data...
Loading historical data...

Documentation

Showing up to 5 results
|